Simultaneous Nadir Overpasses (SNOs) Predictions

Prediction of SNOs between GOES-16 and LANDSAT-8 Satellite Orbit:

Table of predicted SNOs for the next 14.0 days since TLE Epoch: 5/31/2019
Index Date Time (GOES-16) GOES-16 Lat,Lon LANDSAT-8 Lat,Lon Distance(km) Time Diff (sec)
1 06/01/2019 15:08:54 -0.01, -75.20 -0.29, -73.93 144.47 80
2 06/02/2019 03:30:18 0.01, -75.20 -0.84, -79.12 446.81 80
3 06/03/2019 14:56:44 -0.01, -75.21 -0.94, -70.98 481.30 80
4 06/04/2019 03:18:08 0.01, -75.20 -0.19, -76.17 109.94 80
5 06/06/2019 03:03:17 -0.00, -75.21 0.40, -73.21 227.16 80
6 06/06/2019 15:24:33 0.00, -75.22 0.69, -78.36 357.81 80
7 06/08/2019 15:15:03 0.01, -75.23 0.04, -75.41 20.28 80
8 06/10/2019 15:00:13 0.01, -75.25 -0.62, -72.46 317.91 80
9 06/11/2019 03:24:17 -0.01, -75.25 -0.50, -77.65 272.76 80
10 06/13/2019 03:09:26 -0.01, -75.28 0.09, -74.69 66.39 80




NCC Satellite Simultaneous Nadir Overpasses (SNOs) Prediction Service
